Tracking 19176 objects as of 27-May-2018
HD Live streaming from Space Station
objects crossing your sky now

NOAA 16 DEB

Track NOAA 16 DEB now!
10-day predictions


NORAD ID: 41523
Int'l Code: 2000-055MX
Perigee: 852.9 km
Apogee: 871.7 km
Inclination: 98.9 °
Period: 102.0 minutes
Semi major axis: 7233 km
RCS: Unknown
Launch date: September 21, 2000
Source: United States (US)
Launch site: AIR FORCE WESTERN TEST RANGE (AFWTR)

Note: This is SATELLITE DEBRIS
aabbcc
Your satellite tracking list
Your tracking list is empty




NASA's NSSDC Master Catalog

Two Line Element Set (TLE):
1 41523U 00055MX  18146.14411586 +.00000668 +00000-0 +39446-3 0  9994
2 41523 098.8893 220.7829 0013002 170.9553 189.1854 14.11235042107746
Source of the keplerian elements: AFSPC